Stockton, CA

6:17 AM PDT on April 20, 2018 (GMT -0700)
Stockton Metro

Weather History for KSCK - December, 2011

Change the Weather History Date:

Tuesday, December 6, 2011

  Actual Average Record
Temperature  
Mean Temperature 42 °F -  
Max Temperature 58 °F 56 °F 71 °F (2014)
Min Temperature 26 °F 38 °F 23 °F (2009)
Degree Days  
Heating Degree Days 23 18  
Month to date heating degree days 110 106  
Since 1 July heating degree days 591 563  
Cooling Degree Days 0 0  
Month to date cooling degree days 0 0  
Year to date cooling degree days 1191 1320  
Moisture  
Dew Point 27 °F    
Average Humidity 58    
Maximum Humidity 85    
Minimum Humidity 30    
Precipitation  
Precipitation 0.00 in 0.06 in 0.87 in (1950)
Month to date precipitation 0.00 0.37  
Year to date precipitation 9.95 12.21  
Since 1 July precipitation 1.48  
Snow  
Snow 0.00 in - 0.00 in (2001)
Month to date snowfall 0.0  
Since 1 July snowfall 0.0  
Snow Depth -    
Sea Level Pressure  
Sea Level Pressure 30.36 in    
Wind  
Wind Speed 1 mph (North)    
Max Wind Speed 6 mph    
Max Gust Speed 8 mph    
Visibility 7 miles    
Events      
T = Trace of Precipitation, MM = Missing Value Source: NWS Daily Summary

Daily Weather History Graph

Daily Weather History Graph

Search for Another Location

Airport or City:

Astronomy

Dec. 06, 2011 Rise Set
Actual Time 7:06 AM PST 4:45 PM PST
Civil Twilight 6:37 AM PST 5:14 PM PST
Nautical Twilight 6:04 AM PST 5:47 PM PST
Astronomical Twilight 5:32 AM PST 6:19 PM PST
Moon 2:13 PM PST (12/6) 3:31 AM PST (12/6)
Length of Visible Light 10h 37m
Length of Day
9h 39m
Waxing Gibbous, 87% of the Moon is Illuminated
Dec 6
Waxing Gibbous
Dec 10
Full
Dec 17
Last Quarter
Dec 24
New
Dec 31
First Quarter

Hourly Weather History & Observations

Time (PST) Temp. Windchill Dew Point Humidity Pressure Visibility Wind Dir Wind Speed Gust Speed Precip Events Conditions
12:55 AM 32.0 °F - 23.0 °F 69% 30.33 in 6.0 mi Calm Calm - N/A   Haze
1:55 AM 33.1 °F 30.0 °F 26.1 °F 75% 30.35 in 6.0 mi ENE 3.5 mph - N/A   Haze
2:55 AM 30.0 °F - 24.1 °F 79% 30.36 in 7.0 mi Calm Calm - N/A   Clear
3:55 AM 28.9 °F - 23.0 °F 78% 30.36 in 7.0 mi Calm Calm - N/A   Clear
4:55 AM 27.0 °F - 21.9 °F 81% 30.36 in 6.0 mi Calm Calm - N/A   Haze
5:55 AM 28.9 °F 23.9 °F 24.1 °F 82% 30.36 in 6.0 mi ENE 4.6 mph - N/A   Haze
6:55 AM 28.0 °F - 23.0 °F 81% 30.38 in 7.0 mi Calm Calm - N/A   Clear
7:55 AM 30.9 °F 27.5 °F 24.1 °F 76% 30.40 in 6.0 mi NNE 3.5 mph - N/A   Haze
8:55 AM 37.4 °F - 28.4 °F 70% 30.41 in 7.0 mi Calm Calm - N/A   Clear
9:55 AM 46.0 °F - 30.0 °F 54% 30.42 in 9.0 mi Calm Calm - N/A   Clear
10:55 AM 50.0 °F - 30.0 °F 46% 30.41 in 10.0 mi Calm Calm - N/A   Clear
11:55 AM 54.0 °F - 28.9 °F 38% 30.38 in 10.0 mi Calm Calm - N/A   Clear
12:55 PM 55.9 °F - 28.0 °F 34% 30.35 in 8.0 mi North 3.5 mph - N/A   Clear
1:55 PM 57.9 °F - 27.0 °F 31% 30.33 in 8.0 mi Calm Calm - N/A   Clear
2:55 PM 57.0 °F - 28.0 °F 33% 30.33 in 6.0 mi NNW 3.5 mph - N/A   Haze
3:55 PM 57.0 °F - 28.0 °F 33% 30.33 in 7.0 mi NNW 3.5 mph - N/A   Clear
4:55 PM 52.0 °F - 28.9 °F 41% 30.32 in 7.0 mi WNW 4.6 mph - N/A   Clear
5:55 PM 46.9 °F - 30.0 °F 52% 30.32 in 8.0 mi Calm Calm - N/A   Clear
6:55 PM 43.0 °F 41.3 °F 30.0 °F 60% 30.32 in 7.0 mi WSW 3.5 mph - N/A   Clear
7:55 PM 44.1 °F - 30.9 °F 60% 30.34 in 7.0 mi Calm Calm - N/A   Clear
8:55 PM 39.2 °F 37.0 °F 30.2 °F 70% 30.35 in 7.0 mi South 3.5 mph - N/A   Clear
9:55 PM 37.9 °F - 28.0 °F 68% 30.35 in 7.0 mi Calm Calm - N/A   Clear
10:55 PM 36.0 °F - 27.0 °F 70% 30.36 in 7.0 mi Calm Calm - N/A   Clear
11:55 PM 34.0 °F 29.8 °F 26.1 °F 73% 30.35 in 6.0 mi ENE 4.6 mph - N/A   Haze